Overview Statistics Trail Chart Weather Telemetry Raw packets
 

This is the latest recevied weather packets stored in our database for station/object EA1IDU-12. If no packets are shown the sender has not sent any weather packets the latest 10 day(s).

<< 18 19 20 21 22 23 24 >>
Time Temp. Humidity Pressure Rain* Wind** Luminosity Snow
1788183606 26.67° C 33% 1030.4 hPa - - - -
1788182705 27.22° C 33% 1030.4 hPa - - - -
1788181805 27.22° C 33% 1030.5 hPa - - - -
1788180925 26.11° C 35% 1030.7 hPa - - - -
1788180005 26.11° C 35% 1030.8 hPa - - - -
1788179105 26.11° C 36% 1030.9 hPa - - - -
1788178205 25.56° C 38% 1031 hPa - - - -
1788177304 25° C 40% 1031.1 hPa - - - -
1788176404 23.89° C 42% 1031.2 hPa - - - -
1788175504 23.89° C 43% 1031.3 hPa - - - -
1788174604 23.33° C 44% 1031.3 hPa - - - -
1788173704 22.78° C 46% 1031.4 hPa - - - -
1788172804 22.22° C 47% 1031.3 hPa - - - -
1788171903 21.67° C 50% 1031.5 hPa - - - -
1788171003 21.11° C 51% 1031.6 hPa - - - -
1788170103 20.56° C 53% 1031.6 hPa - - - -
1788169203 20° C 55% 1031.5 hPa - - - -
1788168303 19.44° C 57% 1031.5 hPa - - - -
1788167403 18.89° C 58% 1031.4 hPa - - - -
1788166502 18.33° C 60% 1031.6 hPa - - - -
1788165602 17.22° C 62% 1031.6 hPa - - - -
1788164702 17.78° C 62% 1031.6 hPa - - - -
1788163807 17.78° C 63% 1031.5 hPa - - - -
1788162902 17.22° C 65% 1031.5 hPa - - - -
1788162002 16.67° C 67% 1031.5 hPa - - - -

* Rain since midnight (hover to see other rain measurements)
** Current wind speed in m/s (hover to see current wind gust speed)